Location: Cactus School
(34.5700°N, 118.0931°W)
Time: 20:20:32
(UTC-07:00)

Envisat - Visible Passes

Search period start: 13 October 2019 00:00
Search period end: 23 October 2019 00:00
Orbit: 764 x 766 km, 98.1° (Epoch: 13 October)

Date Brightness Start Highest point End Pass type
(mag) Time Alt. Az. Time Alt. Az. Time Alt. Az.
13 Oct 4.9 19:49:19 10° SSW 19:53:46 31° W 19:58:14 10° NW visible
14 Oct 6.8 06:25:21 10° ENE 06:26:41 11° E 06:28:00 10° ESE visible
14 Oct 3.2 19:11:51 10° S 19:16:54 75° WSW 19:22:00 10° NNW visible
15 Oct 3.3 18:35:25 10° SE 18:40:14 46° ENE 18:45:05 10° N visible
15 Oct 5.9 20:16:15 10° SW 20:19:26 17° W 20:22:39 10° NW visible
16 Oct 4.4 19:37:43 10° SSW 19:42:27 40° W 19:47:13 10° NNW visible
17 Oct 3.0 19:00:35 10° SSE 19:05:39 85° ENE 19:10:45 10° N visible
18 Oct 5.5 20:04:14 10° SW 20:08:05 22° W 20:11:57 10° NW visible
19 Oct 6.2 06:37:56 10° NE 06:41:04 16° E 06:44:11 10° SE visible
19 Oct 3.9 19:26:14 10° S 19:31:09 52° W 19:36:07 10° NNW visible
20 Oct 3.0 18:49:23 10° SSE 18:54:25 66° ENE 18:59:27 10° N visible
20 Oct 6.2 20:32:17 10° WSW 20:33:49 11° W 20:35:21 10° WNW visible
21 Oct 5.1 19:52:27 10° SSW 19:56:45 28° W 20:01:05 10° NW visible
22 Oct 6.5 06:27:39 10° ENE 06:29:42 12° E 06:31:44 10° ESE visible
22 Oct 3.4 19:14:51 10° S 19:19:53 68° WSW 19:24:57 10° NNW visible
